Probability
0 0 0 0 0 0 1 0 0 0 0 0 0 0 0 0 0 0 0 0 1 3 3 3 1 1 1 1 0 0 0 0 0 0 0 0 0 0 0 0 0 0 0
0 0 0 0 0 0 1 0 0 0 0 0 0 0 0 0 0 0 0 0 1 2 3 3 2 1 0 0 0 0 0 0 0 0 0 0 0 0 0 0 0 0 0
0 0 0 0 0 0 0 0 0 0 0 0 0 0 1 1 1 0 0 0 1 2 2 3 2 1 0 0 0 0 0 0 0 0 0 0 0 0 1 1 0 0 0
0 0 0 0 0 0 0 0 0 0 0 0 0 0 1 1 1 0 0 0 0 1 1 1 1 1 0 0 0 0 0 0 0 0 0 0 0 0 1 1 0 0 0
0 0 0 0 0 0 0 0 0 0 0 0 0 0 1 1 1 0 0 0 1 1 1 0 0 0 0 0 0 0 0 0 0 0 0 0 0 0 1 1 0 0 0
0 0 0 0 0 0 0 0 0 0 0 0 0 0 0 0 1 0 0 0 1 2 1 0 0 0 0 0 0 0 0 0 0 0 0 0 0 0 0 0 0 0 0
0 0 0 0 0 0 0 0 0 0 0 0 0 0 0 0 0 0 0 0 1 1 1 0 0 0 0 1 0 0 0 0 0 0 0 0 0 0 0 0 0 0 0
0 0 0 0 0 1 1 0 0 0 0 0 0 0 0 0 0 0 0 0 0 0 0 0 0 0 0 1 0 0 0 0 0 0 0 0 0 0 0 0 0 0 0
0 0 0 0 0 1 1 0 0 0 0 0 0 0 0 0 0 0 0 0 0 0 0 0 0 0 1 2 1 0 0 0 0 0 0 0 0 0 0 0 0 0 0
0 0 0 0 0 0 0 0 0 0 0 0 0 0 0 0 0 0 0 0 0 0 0 0 1 2 3 3 2 1 0 0 0 0 0 0 0 0 0 0 0 0 0
0 0 0 0 0 0 0 0 0 0 0 0 0 0 0 0 0 0 0 0 0 0 0 1 3 4 4 3 3 1 0 0 0 0 0 0 0 0 0 0 0 0 0
0 0 0 0 0 0 0 0 0 0 0 0 0 0 0 0 0 0 0 0 1 1 1 3 4 4 3 3 3 2 1 0 0 0 0 0 0 0 0 0 0 0 0
0 0 0 0 0 0 0 0 0 0 0 0 0 0 0 0 0 0 0 0 0 1 2 3 4 3 3 3 3 2 1 0 0 0 0 0 0 0 0 0 1 1 1
0 0 0 0 0 0 0 0 0 0 0 0 0 0 0 0 0 0 0 0 0 1 2 3 3 3 2 2 2 1 0 0 0 0 0 0 0 0 0 1 2 2 2
0 0 0 0 0 0 0 0 0 0 0 0 0 0 0 0 0 0 0 0 0 1 2 2 2 1 1 1 1 0 0 0 0 0 0 0 0 0 0 1 2 3 3
0 0 0 0 0 0 0 0 0 0 0 0 0 0 0 0 0 0 0 0 0 0 1 1 1 0 0 0 0 0 0 0 0 0 0 0 0 0 0 0 1 2 2
0 0 0 0 0 0 0 0 0 0 0 0 0 0 0 0 0 0 0 0 0 0 0 0 0 0 0 0 0 0 0 0 0 0 0 0 0 0 0 0 0 1 1
0 0 0 0 0 0 0 0 0 0 0 0 0 0 0 0 0 0 0 0 0 0 0 0 0 0 0 0 0 0 0 0 0 0 0 0 0 0 0 0 0 0 0
0 0 0 0 0 0 0 0 0 0 0 0 0 0 0 0 0 0 0 0 0 0 0 0 0 0 0 0 0 0 0 0 0 0 0 0 0 0 0 0 0 0 0
0 0 0 0 0 0 0 0 0 0 0 0 0 0 0 0 0 0 0 0 0 0 0 0 0 0 0 0 0 0 0 0 0 0 0 0 0 0 0 0 0 0 0
0 0 0 0 0 0 0 0 0 0 0 0 0 0 0 0 0 0 0 0 0 0 0 0 0 0 0 0 0 0 0 0 0 0 0 0 0 0 0 0 0 0 0
0 0 0 0 0 0 0 0 0 0 0 0 0 0 0 0 0 0 0 0 0 0 0 0 0 0 0 0 0 0 0 0 0 0 0 0 0 0 0 0 0 0 0
0 0 0 0 0 0 0 0 0 0 0 0 0 0 0 0 0 0 0 0 0 0 0 0 0 0 0 0 0 0 0 0 0 0 0 0 0 0 0 0 0 0 0
0 0 0 0 0 0 0 0 0 0 0 0 0 0 0 0 0 0 0 0 0 0 0 0 0 0 0 0 0 0 0 0 0 0 0 0 0 0 0 0 0 0 0
0 0 0 0 0 0 0 0 0 0 0 0 0 0 0 0 0 0 0 0 0 0 0 0 0 0 0 0 0 0 0 0 0 0 0 0 0 0 0 0 0 0 0
0 0 0 0 0 0 0 0 0 0 0 0 0 0 0 0 0 0 0 0 0 0 0 0 0 0 0 0 0 0 0 0 0 0 0 0 0 0 0 0 0 0 0
Wind_Speed
3 3 4 2 3 4 4 5 6 7 7 8 8 7 7 7 6 6 6 7 7 7 7 7 7 8 8 9 9 8 8 8 8 8 7 7 6 6 6 6 6 4 7
2 2 2 2 3 3 3 4 5 6 7 7 8 7 7 6 6 6 6 7 7 8 8 8 8 8 8 9 9 8 8 8 8 7 7 6 6 6 6 6 5 4 6
1 1 1 1 2 3 3 4 4 5 6 7 7 7 7 6 6 6 6 7 7 8 8 8 8 9 9 9 9 9 8 8 8 7 6 3 3 5 6 6 6 6 6
0 1 1 1 2 3 3 4 4 5 6 6 6 7 7 6 6 6 6 7 7 8 8 8 9 9 9 9 9 9 8 8 8 7 4 3 2 5 6 6 6 6 6
1 1 2 1 2 3 3 4 4 5 5 6 6 7 6 6 6 6 7 7 8 8 8 8 9 9 9 10 10 9 9 9 9 7 4 3 3 5 6 6 6 6 6
1 2 2 1 2 2 3 4 4 4 5 5 6 6 6 6 7 7 7 8 8 8 8 8 8 9 9 10 10 9 9 9 7 4 4 3 2 5 6 6 5 6 6
1 2 2 1 2 2 3 3 4 4 4 4 5 5 6 6 7 7 7 8 8 8 9 8 8 8 9 9 9 9 8 8 5 4 3 3 3 5 5 5 5 6 6
0 2 3 3 3 3 3 3 3 4 4 5 5 5 6 6 6 7 7 7 8 8 8 8 8 8 9 9 9 9 9 8 6 5 3 3 5 6 6 6 6 6 6
1 2 2 3 4 4 4 4 3 4 4 5 6 6 6 6 6 7 6 6 7 7 7 8 8 9 9 9 10 10 10 10 5 3 4 2 5 6 6 7 7 7 7
2 2 2 2 3 3 3 4 4 4 5 6 6 6 7 7 6 6 6 6 6 7 7 8 9 9 10 10 10 10 9 7 5 4 2 3 6 7 7 7 7 7 6
2 2 2 2 3 3 2 4 4 5 6 6 5 6 6 4 4 3 5 6 6 7 7 8 9 9 9 10 11 10 7 4 4 3 2 5 7 7 7 7 7 7 7
1 2 2 2 2 3 3 3 3 3 3 4 3 4 3 3 3 4 6 7 8 8 8 9 10 9 7 4 6 7 3 4 4 3 3 7 7 7 7 7 7 7 7
0 1 1 2 2 2 2 2 2 2 2 3 3 3 3 3 3 3 3 4 5 6 4 6 6 4 4 4 4 4 4 3 3 2 4 8 8 8 8 7 7 7 7
1 0 1 1 2 2 2 2 2 2 2 2 2 3 3 2 2 2 2 3 3 2 3 3 3 4 5 5 4 5 5 3 3 2 4 8 8 8 8 8 8 8 8
1 0 1 1 2 2 2 2 2 2 2 2 2 2 3 2 2 2 2 3 3 2 3 3 3 4 4 5 5 5 5 4 4 4 3 8 9 9 9 9 8 8 8
2 1 0 1 2 2 2 2 2 2 2 2 2 2 2 2 2 2 3 3 3 3 3 3 4 4 4 4 5 5 4 4 4 4 4 5 9 9 9 9 8 8 8
2 1 1 1 2 3 3 2 2 2 2 2 2 2 3 3 2 3 3 3 2 3 4 4 4 4 4 4 5 5 4 4 4 5 4 4 4 8 9 9 9 8 8
2 1 1 1 3 3 2 2 2 2 2 2 2 2 3 3 3 3 3 2 2 3 3 4 3 4 4 4 4 4 3 4 4 4 4 4 4 4 6 9 9 9 8
3 2 2 2 2 2 2 2 3 3 3 2 2 2 2 3 3 3 3 2 3 3 3 3 3 3 3 3 3 4 3 3 4 4 4 5 4 4 4 6 9 9 8
3 3 3 2 2 2 2 2 3 3 3 2 2 2 2 3 3 3 3 3 3 3 3 3 3 3 3 3 4 4 3 3 3 4 4 4 4 4 4 4 4 6 8
3 3 3 3 2 2 2 2 2 1 1 2 2 2 2 3 3 3 3 3 3 3 3 3 3 4 3 2 3 3 3 4 4 3 3 3 4 4 4 4 3 3 4
4 3 3 3 3 2 2 2 1 1 0 0 1 2 2 2 2 3 3 2 2 3 3 3 3 2 1 2 2 2 2 3 4 4 3 3 4 3 4 4 4 4 3
3 4 4 3 3 3 3 2 2 2 2 2 2 1 1 1 1 2 2 2 2 2 2 2 2 3 2 1 1 2 2 1 1 3 3 3 3 3 3 3 4 4 3
4 3 3 3 3 2 3 3 3 2 1 1 1 0 1 1 1 1 2 2 2 2 2 1 2 2 2 1 1 2 1 2 2 1 2 2 3 3 3 3 3 3 3
4 4 3 3 2 2 2 3 3 2 2 1 0 0 1 1 1 1 2 2 2 2 2 2 2 2 2 2 1 1 2 2 1 2 0 2 2 2 2 2 2 2 3
3 3 3 3 2 2 2 3 4 3 2 2 1 1 0 1 1 0 1 2 2 2 2 2 2 2 1 1 1 2 2 2 1 2 1 1 1 2 2 2 1 2 2
Wind_Direction
292 290 311 10 33 42 56 60 64 64 62 61 64 69 75 79 81 79 85 90 91 90 89 87 88 92 98 100 100 103 102 102 102 100 99 100 102 104 107 106 105 100 110
265 288 309 9 40 42 51 61 64 65 64 63 63 64 70 74 78 79 88 93 95 93 91 88 87 91 98 98 96 96 96 95 94 94 93 89 93 99 104 108 110 112 113
284 305 301 9 40 44 51 70 69 65 65 64 63 62 66 67 68 75 85 90 91 92 90 88 86 85 90 95 92 90 88 87 87 85 79 65 78 95 101 106 107 110 113
309 331 324 27 38 48 55 66 73 68 65 61 61 59 60 58 66 75 81 85 89 91 90 88 87 88 87 91 87 84 83 82 81 76 59 52 71 98 101 106 108 110 110
14 343 323 42 43 58 67 68 69 65 63 63 61 56 53 57 70 74 80 80 85 86 87 88 86 87 86 87 84 80 80 79 74 66 55 51 58 92 99 103 104 106 105
356 335 319 58 58 64 69 65 62 62 63 66 66 62 56 55 64 68 74 76 79 82 82 86 88 87 84 82 81 78 76 74 65 57 51 47 56 87 91 98 103 102 102
329 337 334 48 67 71 68 65 59 57 59 63 62 60 60 60 62 66 71 74 77 78 79 80 85 85 84 80 81 78 75 73 64 57 50 45 61 81 90 97 101 101 95
46 2 357 13 48 54 47 50 56 56 57 55 55 59 66 66 65 65 70 74 79 79 78 77 81 82 81 81 82 77 74 70 62 57 50 45 72 77 83 86 90 94 93
41 26 5 6 12 21 32 37 47 48 54 57 58 61 60 62 68 68 69 69 71 74 79 80 79 80 79 78 79 78 76 68 56 46 53 48 76 80 83 86 84 86 84
30 23 5 8 8 3 3 20 38 44 55 56 55 53 49 46 55 63 63 67 67 70 76 78 80 81 79 77 77 74 70 60 49 44 33 60 73 76 79 82 85 87 87
18 10 11 14 4 357 359 26 29 36 41 47 47 49 45 31 28 43 61 64 64 70 79 78 79 82 79 75 75 72 64 48 45 40 33 66 70 72 76 78 80 83 85
347 353 18 21 12 12 23 31 21 32 35 38 38 39 41 37 37 46 51 61 62 68 75 75 73 73 70 64 66 65 54 48 44 34 44 61 67 70 75 77 77 81 86
255 9 25 31 30 30 28 37 30 35 38 35 38 43 48 46 43 42 41 40 43 56 61 64 64 62 65 68 66 59 55 53 41 27 39 56 59 65 71 72 72 75 80
105 345 11 51 53 36 43 49 49 46 43 37 31 40 49 51 48 47 50 43 44 59 73 69 70 64 66 67 70 66 59 52 39 27 33 47 54 60 66 71 71 73 77
155 245 6 54 60 46 51 49 61 51 50 46 39 40 58 68 63 57 54 51 47 63 80 81 78 73 67 61 61 64 58 51 44 36 24 42 49 54 62 66 69 73 75
195 209 131 94 79 70 65 62 60 50 50 49 43 49 62 74 79 74 63 55 49 57 72 84 87 81 70 64 58 56 53 48 45 40 31 30 37 45 53 58 61 67 70
198 185 172 151 94 81 70 60 64 53 54 51 44 49 62 72 81 86 78 64 57 66 73 79 77 76 76 67 56 49 48 47 47 39 34 29 22 33 42 49 51 55 63
177 162 172 133 106 90 79 68 60 53 58 53 50 51 61 67 78 88 85 77 74 77 78 79 75 74 67 65 57 43 43 46 47 43 38 32 27 23 28 39 42 44 51
178 161 143 116 117 108 93 83 69 57 50 49 54 54 60 67 75 88 88 84 84 83 77 84 76 84 82 70 64 49 40 42 37 43 39 32 31 28 23 25 31 35 41
167 154 141 126 115 108 88 76 60 51 36 42 48 48 64 70 77 85 85 82 84 85 77 81 85 76 82 80 71 54 37 38 38 35 29 29 28 28 27 26 22 21 31
155 155 147 140 138 121 99 94 84 57 17 31 40 51 63 76 86 89 88 85 85 92 99 101 98 86 73 77 78 50 27 34 42 32 27 30 26 22 28 30 28 25 18
172 173 162 162 161 150 142 135 124 124 88 61 31 46 51 73 88 103 103 101 96 99 94 96 100 99 70 47 92 84 30 7 15 25 26 34 23 18 28 33 33 29 19
178 186 183 182 175 163 143 112 84 58 38 33 24 21 16 62 85 100 118 116 113 114 124 122 113 115 114 42 65 123 127 191 333 353 18 27 22 22 16 20 32 28 21
188 183 178 175 174 167 150 141 140 142 159 218 229 276 7 42 80 105 130 128 128 124 134 145 117 118 126 118 49 55 112 147 140 353 346 4 18 25 12 18 23 21 19
178 173 171 165 172 168 158 159 153 157 178 179 139 79 28 19 49 130 146 138 138 137 147 140 120 119 127 138 137 120 89 66 94 136 287 334 353 359 6 9 12 7 12
166 169 166 162 173 163 163 165 167 172 172 162 174 171 274 329 338 214 149 145 151 152 163 164 150 143 141 134 138 142 147 146 159 142 160 276 309 318 349 3 9 1 7